Location: Kumla
(59.1265°N, 15.1401°E)
Time: 18:49:37
(UTC+01:00)

A-11 Canister half - Pass Details

Date: 06 December 2023
Orbit: 1512 x 1687 km, 47.2° (Epoch: 25 February)

Event Time Altitude Azimuth Distance (km) Brightness Sun altitude
Rises 22:08:35 0° 178° (S) 4,717 - -49.2°
Reaches altitude 10° 22:13:47 10° 155° (SSE) 3,775 - -49.6°
Maximum altitude 22:17:51 14° 129° (SE) 3,530 - -49.9°
Drops below altitude 10° 22:21:58 10° 103° (ESE) 3,843 - -50.2°
Sets 22:27:20 0° 80° (E) 4,871 - -50.5°
